Year,Month,Day,Hour,Minute,Value (Times are PST for temperature in C)
2015,07,05,00,00,19.00
2015,07,05,00,01,19.00
2015,07,05,00,02,18.90
2015,07,05,00,03,18.90
2015,07,05,00,04,18.90
2015,07,05,00,05,18.90
2015,07,05,00,06,18.80
2015,07,05,00,07,18.80
2015,07,05,00,08,18.80
2015,07,05,00,09,18.80
2015,07,05,00,10,18.80
2015,07,05,00,11,18.70
2015,07,05,00,12,18.70
2015,07,05,00,13,18.70
2015,07,05,00,14,18.70
2015,07,05,00,15,18.60
2015,07,05,00,16,18.60
2015,07,05,00,17,18.60
2015,07,05,00,18,18.60
2015,07,05,00,19,18.60
2015,07,05,00,20,18.50
2015,07,05,00,21,18.50
2015,07,05,00,22,18.50
2015,07,05,00,23,18.50
2015,07,05,00,24,18.50
2015,07,05,00,25,18.40
2015,07,05,00,26,18.40
2015,07,05,00,27,18.40
2015,07,05,00,28,18.40
2015,07,05,00,29,18.40
2015,07,05,00,30,18.30
2015,07,05,00,31,18.30
2015,07,05,00,32,18.30
2015,07,05,00,33,18.30
2015,07,05,00,34,18.30
2015,07,05,00,35,18.30
2015,07,05,00,36,18.30
2015,07,05,00,37,18.20
2015,07,05,00,38,18.20
2015,07,05,00,39,18.20
2015,07,05,00,40,18.20
2015,07,05,00,41,18.20
2015,07,05,00,42,18.20
2015,07,05,00,43,18.20
2015,07,05,00,44,18.10
2015,07,05,00,45,18.10
2015,07,05,00,46,18.10
2015,07,05,00,47,18.10
2015,07,05,00,48,18.00
2015,07,05,00,49,18.00
2015,07,05,00,50,18.00
2015,07,05,00,51,18.00
2015,07,05,00,52,17.90
2015,07,05,00,53,17.90
2015,07,05,00,54,17.90
2015,07,05,00,55,17.90
2015,07,05,00,56,17.90
2015,07,05,00,57,17.90
2015,07,05,00,58,17.90
2015,07,05,00,59,17.90
2015,07,05,01,00,17.90
2015,07,05,01,01,17.90
2015,07,05,01,02,17.90
2015,07,05,01,03,17.90
2015,07,05,01,04,17.90
2015,07,05,01,05,17.80
2015,07,05,01,06,17.80
2015,07,05,01,07,17.80
2015,07,05,01,08,17.80
2015,07,05,01,09,17.80
2015,07,05,01,10,17.80
2015,07,05,01,11,17.90
2015,07,05,01,12,17.90
2015,07,05,01,13,17.90
2015,07,05,01,14,17.90
2015,07,05,01,15,18.00
2015,07,05,01,16,18.00
2015,07,05,01,17,18.00
2015,07,05,01,18,18.00
2015,07,05,01,19,18.00
2015,07,05,01,20,18.00
2015,07,05,01,21,18.00
2015,07,05,01,22,17.90
2015,07,05,01,23,17.90
2015,07,05,01,24,17.90
2015,07,05,01,25,17.90
2015,07,05,01,26,17.90
2015,07,05,01,27,17.80
2015,07,05,01,28,17.80
2015,07,05,01,29,17.80
2015,07,05,01,30,17.80
2015,07,05,01,31,17.80
2015,07,05,01,32,17.80
2015,07,05,01,33,17.80
2015,07,05,01,34,17.80
2015,07,05,01,35,17.70
2015,07,05,01,36,17.70
2015,07,05,01,37,17.70
2015,07,05,01,38,17.70
2015,07,05,01,39,17.80
2015,07,05,01,40,17.80
2015,07,05,01,41,17.80
2015,07,05,01,42,17.80
2015,07,05,01,43,17.80
2015,07,05,01,44,17.90
2015,07,05,01,45,17.90
2015,07,05,01,46,17.90
2015,07,05,01,47,17.90
2015,07,05,01,48,17.90
2015,07,05,01,49,17.90
2015,07,05,01,50,17.90
2015,07,05,01,51,17.90
2015,07,05,01,52,17.90
2015,07,05,01,53,17.90
2015,07,05,01,54,17.90
2015,07,05,01,55,17.90
2015,07,05,01,56,18.00
2015,07,05,01,57,18.00
2015,07,05,01,58,18.00
2015,07,05,01,59,18.00
2015,07,05,02,00,17.90
2015,07,05,02,01,17.90
2015,07,05,02,02,17.90
2015,07,05,02,03,17.90
2015,07,05,02,04,17.90
2015,07,05,02,05,17.90
2015,07,05,02,06,17.90
2015,07,05,02,07,17.90
2015,07,05,02,08,17.90
2015,07,05,02,09,17.90
2015,07,05,02,10,17.90
2015,07,05,02,11,17.90
2015,07,05,02,12,17.90
2015,07,05,02,13,17.90
2015,07,05,02,14,17.90
2015,07,05,02,15,17.90
2015,07,05,02,16,17.80
2015,07,05,02,17,17.80
2015,07,05,02,18,17.80
2015,07,05,02,19,17.80
2015,07,05,02,20,17.80
2015,07,05,02,21,17.70
2015,07,05,02,22,17.70
2015,07,05,02,23,17.70
2015,07,05,02,24,17.70
2015,07,05,02,25,17.70
2015,07,05,02,26,17.70
2015,07,05,02,27,17.60
2015,07,05,02,28,17.60
2015,07,05,02,29,17.60
2015,07,05,02,30,17.60
2015,07,05,02,31,17.60
2015,07,05,02,32,17.60
2015,07,05,02,33,17.60
2015,07,05,02,34,17.60
2015,07,05,02,35,17.60
2015,07,05,02,36,17.60
2015,07,05,02,37,17.60
2015,07,05,02,38,17.60
2015,07,05,02,39,17.60
2015,07,05,02,40,17.60
2015,07,05,02,41,17.60
2015,07,05,02,42,17.60
2015,07,05,02,43,17.60
2015,07,05,02,44,17.60
2015,07,05,02,45,17.60
2015,07,05,02,46,17.60
2015,07,05,02,47,17.60
2015,07,05,02,48,17.50
2015,07,05,02,49,17.50
2015,07,05,02,50,17.40
2015,07,05,02,51,17.40
2015,07,05,02,52,17.40
2015,07,05,02,53,17.40
2015,07,05,02,54,17.30
2015,07,05,02,55,17.30
2015,07,05,02,56,17.30
2015,07,05,02,57,17.30
2015,07,05,02,58,17.30
2015,07,05,02,59,17.20
2015,07,05,03,00,17.20
2015,07,05,03,01,17.20
2015,07,05,03,02,17.10
2015,07,05,03,03,17.10
2015,07,05,03,04,17.10
2015,07,05,03,05,17.10
2015,07,05,03,06,17.10
2015,07,05,03,07,17.10
2015,07,05,03,08,17.10
2015,07,05,03,09,17.10
2015,07,05,03,10,17.10
2015,07,05,03,11,17.10
2015,07,05,03,12,17.00
2015,07,05,03,13,17.00
2015,07,05,03,14,17.00
2015,07,05,03,15,17.00
2015,07,05,03,16,17.00
2015,07,05,03,17,16.90
2015,07,05,03,18,16.90
2015,07,05,03,19,16.90
2015,07,05,03,20,16.90
2015,07,05,03,21,16.90
2015,07,05,03,22,16.90
2015,07,05,03,23,16.90
2015,07,05,03,24,16.90
2015,07,05,03,25,16.90
2015,07,05,03,26,16.90
2015,07,05,03,27,16.90
2015,07,05,03,28,16.90
2015,07,05,03,29,16.90
2015,07,05,03,30,16.90
2015,07,05,03,31,16.90
2015,07,05,03,32,16.90
2015,07,05,03,33,16.90
2015,07,05,03,34,16.90
2015,07,05,03,35,16.90
2015,07,05,03,36,16.90
2015,07,05,03,37,16.90
2015,07,05,03,38,16.90
2015,07,05,03,39,16.90
2015,07,05,03,40,16.90
2015,07,05,03,41,16.90
2015,07,05,03,42,16.90
2015,07,05,03,43,16.90
2015,07,05,03,44,16.80
2015,07,05,03,45,16.80
2015,07,05,03,46,16.80
2015,07,05,03,47,16.80
2015,07,05,03,48,16.80
2015,07,05,03,49,16.70
2015,07,05,03,50,16.70
2015,07,05,03,51,16.70
2015,07,05,03,52,16.70
2015,07,05,03,53,16.70
2015,07,05,03,54,16.70
2015,07,05,03,55,16.70
2015,07,05,03,56,16.60
2015,07,05,03,57,16.60
2015,07,05,03,58,16.60
2015,07,05,03,59,16.60
2015,07,05,04,00,16.60
2015,07,05,04,01,16.60
2015,07,05,04,02,16.60
2015,07,05,04,03,16.60
2015,07,05,04,04,16.60
2015,07,05,04,05,16.60
2015,07,05,04,06,16.60
2015,07,05,04,07,16.60
2015,07,05,04,08,16.60
2015,07,05,04,09,16.60
2015,07,05,04,10,16.60
2015,07,05,04,11,16.60
2015,07,05,04,12,16.60
2015,07,05,04,13,16.50
2015,07,05,04,14,16.60
2015,07,05,04,15,16.50
2015,07,05,04,16,16.50
2015,07,05,04,17,16.50
2015,07,05,04,18,16.50
2015,07,05,04,19,16.40
2015,07,05,04,20,16.40
2015,07,05,04,21,16.40
2015,07,05,04,22,16.40
2015,07,05,04,23,16.40
2015,07,05,04,24,16.40
2015,07,05,04,25,16.30
2015,07,05,04,26,16.30
2015,07,05,04,27,16.30
2015,07,05,04,28,16.30
2015,07,05,04,29,16.30
2015,07,05,04,30,16.30
2015,07,05,04,31,16.30
2015,07,05,04,32,16.20
2015,07,05,04,33,16.20
2015,07,05,04,34,16.20
2015,07,05,04,35,16.20
2015,07,05,04,36,16.20
2015,07,05,04,37,16.20
2015,07,05,04,38,16.20
2015,07,05,04,39,16.20
2015,07,05,04,40,16.20
2015,07,05,04,41,16.20
2015,07,05,04,42,16.10
2015,07,05,04,43,16.10
2015,07,05,04,44,16.10
2015,07,05,04,45,16.10
2015,07,05,04,46,16.10
2015,07,05,04,47,16.10
2015,07,05,04,48,16.00
2015,07,05,04,49,16.00
2015,07,05,04,50,16.00
2015,07,05,04,51,16.00
2015,07,05,04,52,15.90
2015,07,05,04,53,15.90
2015,07,05,04,54,15.90
2015,07,05,04,55,15.80
2015,07,05,04,56,15.80
2015,07,05,04,57,15.80
2015,07,05,04,58,15.80
2015,07,05,04,59,15.80
2015,07,05,05,00,15.80
2015,07,05,05,01,15.80
2015,07,05,05,02,15.80
2015,07,05,05,03,15.80
2015,07,05,05,04,15.80
2015,07,05,05,05,15.80
2015,07,05,05,06,15.80
2015,07,05,05,07,15.80
2015,07,05,05,08,15.80
2015,07,05,05,09,15.80
2015,07,05,05,10,15.70
2015,07,05,05,11,15.70
2015,07,05,05,12,15.70
2015,07,05,05,13,15.70
2015,07,05,05,14,15.70
2015,07,05,05,15,15.70
2015,07,05,05,16,15.70
2015,07,05,05,17,15.70
2015,07,05,05,18,15.70
2015,07,05,05,19,15.70
2015,07,05,05,20,15.70
2015,07,05,05,21,15.70
2015,07,05,05,22,15.70
2015,07,05,05,23,15.70
2015,07,05,05,24,15.70
2015,07,05,05,25,15.70
2015,07,05,05,26,15.70
2015,07,05,05,27,15.60
2015,07,05,05,28,15.60
2015,07,05,05,29,15.60
2015,07,05,05,30,15.60
2015,07,05,05,31,15.60
2015,07,05,05,32,15.60
2015,07,05,05,33,15.60
2015,07,05,05,34,15.50
2015,07,05,05,35,15.50
2015,07,05,05,36,15.50
2015,07,05,05,37,15.50
2015,07,05,05,38,15.40
2015,07,05,05,39,15.40
2015,07,05,05,40,15.40
2015,07,05,05,41,15.40
2015,07,05,05,42,15.40
2015,07,05,05,43,15.40
2015,07,05,05,44,15.40
2015,07,05,05,45,15.40
2015,07,05,05,46,15.40
2015,07,05,05,47,15.40
2015,07,05,05,48,15.40
2015,07,05,05,49,15.40
2015,07,05,05,50,15.40
2015,07,05,05,51,15.40
2015,07,05,05,52,15.40
2015,07,05,05,53,15.40
2015,07,05,05,54,15.40
2015,07,05,05,55,15.40
2015,07,05,05,56,15.40
2015,07,05,05,57,15.40
2015,07,05,05,58,15.40
2015,07,05,05,59,15.40
2015,07,05,06,00,15.40
2015,07,05,06,01,15.40
2015,07,05,06,02,15.40
2015,07,05,06,03,15.40
2015,07,05,06,04,15.40
2015,07,05,06,05,15.40
2015,07,05,06,06,15.40
2015,07,05,06,07,15.40
2015,07,05,06,08,15.40
2015,07,05,06,09,15.40
2015,07,05,06,10,15.50
2015,07,05,06,11,15.50
2015,07,05,06,12,15.50
2015,07,05,06,13,15.50
2015,07,05,06,14,15.50
2015,07,05,06,15,15.50
2015,07,05,06,16,15.50
2015,07,05,06,17,15.50
2015,07,05,06,18,15.50
2015,07,05,06,19,15.50
2015,07,05,06,20,15.60
2015,07,05,06,21,15.60
2015,07,05,06,22,15.60
2015,07,05,06,23,15.60
2015,07,05,06,24,15.60
2015,07,05,06,25,15.60
2015,07,05,06,26,15.60
2015,07,05,06,27,15.60
2015,07,05,06,28,15.60
2015,07,05,06,29,15.60
2015,07,05,06,30,15.60
2015,07,05,06,31,15.60
2015,07,05,06,32,15.60
2015,07,05,06,33,15.60
2015,07,05,06,34,15.60
2015,07,05,06,35,15.60
2015,07,05,06,36,15.60
2015,07,05,06,37,15.70
2015,07,05,06,38,15.70
2015,07,05,06,39,15.70
2015,07,05,06,40,15.70
2015,07,05,06,41,15.70
2015,07,05,06,42,15.70
2015,07,05,06,43,15.70
2015,07,05,06,44,15.70
2015,07,05,06,45,15.80
2015,07,05,06,46,15.80
2015,07,05,06,47,15.80
2015,07,05,06,48,15.80
2015,07,05,06,49,15.80
2015,07,05,06,50,15.80
2015,07,05,06,51,15.80
2015,07,05,06,52,15.80
2015,07,05,06,53,15.80
2015,07,05,06,54,15.80
2015,07,05,06,55,15.90
2015,07,05,06,56,15.90
2015,07,05,06,57,15.90
2015,07,05,06,58,15.90
2015,07,05,06,59,15.90
2015,07,05,07,00,15.90
2015,07,05,07,01,15.90
2015,07,05,07,02,15.90
2015,07,05,07,03,15.90
2015,07,05,07,04,16.00
2015,07,05,07,05,16.00
2015,07,05,07,06,16.00
2015,07,05,07,07,16.10
2015,07,05,07,08,16.10
2015,07,05,07,09,16.10
2015,07,05,07,10,16.20
2015,07,05,07,11,16.20
2015,07,05,07,12,16.20
2015,07,05,07,13,16.30
2015,07,05,07,14,16.30
2015,07,05,07,15,16.30
2015,07,05,07,16,16.30
2015,07,05,07,17,16.30
2015,07,05,07,18,16.40
2015,07,05,07,19,16.40
2015,07,05,07,20,16.40
2015,07,05,07,21,16.40
2015,07,05,07,22,16.50
2015,07,05,07,23,16.50
2015,07,05,07,24,16.60
2015,07,05,07,25,16.60
2015,07,05,07,26,16.60
2015,07,05,07,27,16.60
2015,07,05,07,28,16.70
2015,07,05,07,29,16.70
2015,07,05,07,30,16.70
2015,07,05,07,31,16.70
2015,07,05,07,32,16.80
2015,07,05,07,33,16.80
2015,07,05,07,34,16.80
2015,07,05,07,35,16.90
2015,07,05,07,36,16.90
2015,07,05,07,37,16.90
2015,07,05,07,38,17.00
2015,07,05,07,39,17.00
2015,07,05,07,40,17.10
2015,07,05,07,41,17.10
2015,07,05,07,42,17.10
2015,07,05,07,43,17.20
2015,07,05,07,44,17.20
2015,07,05,07,45,17.20
2015,07,05,07,46,17.20
2015,07,05,07,47,17.30
2015,07,05,07,48,17.30
2015,07,05,07,49,17.30
2015,07,05,07,50,17.30
2015,07,05,07,51,17.40
2015,07,05,07,52,17.40
2015,07,05,07,53,17.40
2015,07,05,07,54,17.40
2015,07,05,07,55,17.40
2015,07,05,07,56,17.50
2015,07,05,07,57,17.50
2015,07,05,07,58,17.60
2015,07,05,07,59,17.60
2015,07,05,08,00,17.60
2015,07,05,08,01,17.70
2015,07,05,08,02,17.70
2015,07,05,08,03,17.70
2015,07,05,08,04,17.70
2015,07,05,08,05,17.80
2015,07,05,08,06,17.80
2015,07,05,08,07,17.80
2015,07,05,08,08,17.80
2015,07,05,08,09,17.80
2015,07,05,08,10,17.90
2015,07,05,08,11,17.90
2015,07,05,08,12,17.90
2015,07,05,08,13,17.90
2015,07,05,08,14,18.00
2015,07,05,08,15,18.00
2015,07,05,08,16,18.00
2015,07,05,08,17,18.00
2015,07,05,08,18,18.10
2015,07,05,08,19,18.10
2015,07,05,08,20,18.10
2015,07,05,08,21,18.20
2015,07,05,08,22,18.20
2015,07,05,08,23,18.20
2015,07,05,08,24,18.30
2015,07,05,08,25,18.30
2015,07,05,08,26,18.30
2015,07,05,08,27,18.40
2015,07,05,08,28,18.40
2015,07,05,08,29,18.40
2015,07,05,08,30,18.50
2015,07,05,08,31,18.50
2015,07,05,08,32,18.60
2015,07,05,08,33,18.60
2015,07,05,08,34,18.70
2015,07,05,08,35,18.70
2015,07,05,08,36,18.80
2015,07,05,08,37,18.80
2015,07,05,08,38,18.80
2015,07,05,08,39,18.90
2015,07,05,08,40,18.90
2015,07,05,08,41,19.00
2015,07,05,08,42,19.00
2015,07,05,08,43,19.10
2015,07,05,08,44,19.10
2015,07,05,08,45,19.20
2015,07,05,08,46,19.30
2015,07,05,08,47,19.30
2015,07,05,08,48,19.40
2015,07,05,08,49,19.40
2015,07,05,08,50,19.50
2015,07,05,08,51,19.60
2015,07,05,08,52,19.70
2015,07,05,08,53,19.70
2015,07,05,08,54,19.80
2015,07,05,08,55,19.80
2015,07,05,08,56,19.90
2015,07,05,08,57,19.90
2015,07,05,08,58,20.00
2015,07,05,08,59,20.00
2015,07,05,09,00,20.10
2015,07,05,09,01,20.20
2015,07,05,09,02,20.20
2015,07,05,09,03,20.30
2015,07,05,09,04,20.30
2015,07,05,09,05,20.30
2015,07,05,09,06,20.40
2015,07,05,09,07,20.40
2015,07,05,09,08,20.40
2015,07,05,09,09,20.40
2015,07,05,09,10,20.50
2015,07,05,09,11,20.50
2015,07,05,09,12,20.60
2015,07,05,09,13,20.60
2015,07,05,09,14,20.60
2015,07,05,09,15,20.70
2015,07,05,09,16,20.70
2015,07,05,09,17,20.80
2015,07,05,09,18,20.80
2015,07,05,09,19,20.80
2015,07,05,09,20,20.90
2015,07,05,09,21,20.90
2015,07,05,09,22,20.90
2015,07,05,09,23,21.00
2015,07,05,09,24,21.10
2015,07,05,09,25,21.10
2015,07,05,09,26,21.10
2015,07,05,09,27,21.20
2015,07,05,09,28,21.20
2015,07,05,09,29,21.30
2015,07,05,09,30,21.40
2015,07,05,09,31,21.40
2015,07,05,09,32,21.50
2015,07,05,09,33,21.50
2015,07,05,09,34,21.60
2015,07,05,09,35,21.60
2015,07,05,09,36,21.70
2015,07,05,09,37,21.70
2015,07,05,09,38,21.70
2015,07,05,09,39,21.80
2015,07,05,09,40,21.80
2015,07,05,09,41,21.80
2015,07,05,09,42,21.80
2015,07,05,09,43,21.80
2015,07,05,09,44,21.90
2015,07,05,09,45,21.90
2015,07,05,09,46,22.00
2015,07,05,09,47,22.00
2015,07,05,09,48,22.10
2015,07,05,09,49,22.10
2015,07,05,09,50,22.10
2015,07,05,09,51,22.10
2015,07,05,09,52,22.20
2015,07,05,09,53,22.20
2015,07,05,09,54,22.20
2015,07,05,09,55,22.20
2015,07,05,09,56,22.20
2015,07,05,09,57,22.20
2015,07,05,09,58,22.20
2015,07,05,09,59,22.20
2015,07,05,10,00,22.30
2015,07,05,10,01,22.30
2015,07,05,10,02,22.30
2015,07,05,10,03,22.30
2015,07,05,10,04,22.30
2015,07,05,10,05,22.30
2015,07,05,10,06,22.30
2015,07,05,10,07,22.30
2015,07,05,10,08,22.20
2015,07,05,10,09,22.20
2015,07,05,10,10,22.20
2015,07,05,10,11,22.20
2015,07,05,10,12,22.30
2015,07,05,10,13,22.30
2015,07,05,10,14,22.30
2015,07,05,10,15,22.30
2015,07,05,10,16,22.30
2015,07,05,10,17,22.30
2015,07,05,10,18,22.30
2015,07,05,10,19,22.20
2015,07,05,10,20,22.20
2015,07,05,10,21,22.20
2015,07,05,10,22,22.20
2015,07,05,10,23,22.20
2015,07,05,10,24,22.20
2015,07,05,10,25,22.20
2015,07,05,10,26,22.20
2015,07,05,10,27,22.20
2015,07,05,10,28,22.20
2015,07,05,10,29,22.20
2015,07,05,10,30,22.20
2015,07,05,10,31,22.20
2015,07,05,10,32,22.20
2015,07,05,10,33,22.20
2015,07,05,10,34,22.20
2015,07,05,10,35,22.20
2015,07,05,10,36,22.20
2015,07,05,10,37,22.20
2015,07,05,10,38,22.20
2015,07,05,10,39,22.20
2015,07,05,10,40,22.20
2015,07,05,10,41,22.20
2015,07,05,10,42,22.20
2015,07,05,10,43,22.20
2015,07,05,10,44,22.30
2015,07,05,10,45,22.30
2015,07,05,10,46,22.30
2015,07,05,10,47,22.40
2015,07,05,10,48,22.40
2015,07,05,10,49,22.40
2015,07,05,10,50,22.50
2015,07,05,10,51,22.50
2015,07,05,10,52,22.60
2015,07,05,10,53,22.60
2015,07,05,10,54,22.60
2015,07,05,10,55,22.70
2015,07,05,10,56,22.70
2015,07,05,10,57,22.80
2015,07,05,10,58,22.80
2015,07,05,10,59,22.90
2015,07,05,11,00,22.90
2015,07,05,11,01,23.00
2015,07,05,11,02,23.10
2015,07,05,11,03,23.10
2015,07,05,11,04,23.20
2015,07,05,11,05,23.30
2015,07,05,11,06,23.30
2015,07,05,11,07,23.40
2015,07,05,11,08,23.40
2015,07,05,11,09,23.40
2015,07,05,11,10,23.50
2015,07,05,11,11,23.50
2015,07,05,11,12,23.60
2015,07,05,11,13,23.60
2015,07,05,11,14,23.60
2015,07,05,11,15,23.60
2015,07,05,11,16,23.60
2015,07,05,11,17,23.60
2015,07,05,11,18,23.70
2015,07,05,11,19,23.70
2015,07,05,11,20,23.70
2015,07,05,11,21,23.70
2015,07,05,11,22,23.70
2015,07,05,11,23,23.80
2015,07,05,11,24,23.80
2015,07,05,11,25,23.80
2015,07,05,11,26,23.80
2015,07,05,11,27,23.80
2015,07,05,11,28,23.90
2015,07,05,11,29,23.90
2015,07,05,11,30,23.90
2015,07,05,11,31,23.90
2015,07,05,11,32,24.00
2015,07,05,11,33,24.00
2015,07,05,11,34,24.10
2015,07,05,11,35,24.10
2015,07,05,11,36,24.10
2015,07,05,11,37,24.20
2015,07,05,11,38,24.20
2015,07,05,11,39,24.20
2015,07,05,11,40,24.30
2015,07,05,11,41,24.30
2015,07,05,11,42,24.30
2015,07,05,11,43,24.40
2015,07,05,11,44,24.40
2015,07,05,11,45,24.50
2015,07,05,11,46,24.50
2015,07,05,11,47,24.50
2015,07,05,11,48,24.60
2015,07,05,11,49,24.60
2015,07,05,11,50,24.60
2015,07,05,11,51,24.70
2015,07,05,11,52,24.70
2015,07,05,11,53,24.70
2015,07,05,11,54,24.70
2015,07,05,11,55,24.70
2015,07,05,11,56,24.70
2015,07,05,11,57,24.70
2015,07,05,11,58,24.70
2015,07,05,11,59,24.70
2015,07,05,12,00,24.70
2015,07,05,12,01,24.70
2015,07,05,12,02,24.70
2015,07,05,12,03,24.70
2015,07,05,12,04,24.70
2015,07,05,12,05,24.80
2015,07,05,12,06,24.80
2015,07,05,12,07,24.80
2015,07,05,12,08,24.80
2015,07,05,12,09,24.90
2015,07,05,12,10,24.90
2015,07,05,12,11,24.90
2015,07,05,12,12,24.90
2015,07,05,12,13,24.90
2015,07,05,12,14,24.90
2015,07,05,12,15,24.90
2015,07,05,12,16,25.00
2015,07,05,12,17,25.00
2015,07,05,12,18,25.00
2015,07,05,12,19,25.10
2015,07,05,12,20,25.10
2015,07,05,12,21,25.10
2015,07,05,12,22,25.10
2015,07,05,12,23,25.10
2015,07,05,12,24,25.10
2015,07,05,12,25,25.10
2015,07,05,12,26,25.20
2015,07,05,12,27,25.20
2015,07,05,12,28,25.20
2015,07,05,12,29,25.20
2015,07,05,12,30,25.30
2015,07,05,12,31,25.30
2015,07,05,12,32,25.30
2015,07,05,12,33,25.40
2015,07,05,12,34,25.40
2015,07,05,12,35,25.50
2015,07,05,12,36,25.50
2015,07,05,12,37,25.60
2015,07,05,12,38,25.60
2015,07,05,12,39,25.70
2015,07,05,12,40,25.70
2015,07,05,12,41,25.70
2015,07,05,12,42,25.80
2015,07,05,12,43,25.80
2015,07,05,12,44,25.90
2015,07,05,12,45,25.90
2015,07,05,12,46,25.90
2015,07,05,12,47,25.90
2015,07,05,12,48,25.90
2015,07,05,12,49,26.00
2015,07,05,12,50,26.10
2015,07,05,12,51,26.10
2015,07,05,12,52,26.10
2015,07,05,12,53,26.20
2015,07,05,12,54,26.20
2015,07,05,12,55,26.20
2015,07,05,12,56,26.30
2015,07,05,12,57,26.30
2015,07,05,12,58,26.40
2015,07,05,12,59,26.40
2015,07,05,13,00,26.40
2015,07,05,13,01,26.50
2015,07,05,13,02,26.60
2015,07,05,13,03,26.60
2015,07,05,13,04,26.60
2015,07,05,13,05,26.70
2015,07,05,13,06,26.70
2015,07,05,13,07,26.70
2015,07,05,13,08,26.80
2015,07,05,13,09,26.80
2015,07,05,13,10,26.80
2015,07,05,13,11,26.80
2015,07,05,13,12,26.90
2015,07,05,13,13,26.90
2015,07,05,13,14,27.00
2015,07,05,13,15,27.00
2015,07,05,13,16,27.10
2015,07,05,13,17,27.10
2015,07,05,13,18,27.10
2015,07,05,13,19,27.20
2015,07,05,13,20,27.20
2015,07,05,13,21,27.20
2015,07,05,13,22,27.20
2015,07,05,13,23,27.30
2015,07,05,13,24,27.30
2015,07,05,13,25,27.30
2015,07,05,13,26,27.30
2015,07,05,13,27,27.30
2015,07,05,13,28,27.30
2015,07,05,13,29,27.40
2015,07,05,13,30,27.40
2015,07,05,13,31,27.40
2015,07,05,13,32,27.50
2015,07,05,13,33,27.50
2015,07,05,13,34,27.60
2015,07,05,13,35,27.60
2015,07,05,13,36,27.60
2015,07,05,13,37,27.60
2015,07,05,13,38,27.70
2015,07,05,13,39,27.70
2015,07,05,13,40,27.70
2015,07,05,13,41,27.80
2015,07,05,13,42,27.80
2015,07,05,13,43,27.90
2015,07,05,13,44,27.90
2015,07,05,13,45,27.90
2015,07,05,13,46,27.90
2015,07,05,13,47,28.00
2015,07,05,13,48,28.10
2015,07,05,13,49,28.10
2015,07,05,13,50,28.10
2015,07,05,13,51,28.20
2015,07,05,13,52,28.20
2015,07,05,13,53,28.20
2015,07,05,13,54,28.30
2015,07,05,13,55,28.30
2015,07,05,13,56,28.30
2015,07,05,13,57,28.30
2015,07,05,13,58,28.40
2015,07,05,13,59,28.40
2015,07,05,14,00,28.50
2015,07,05,14,01,28.50
2015,07,05,14,02,28.60
2015,07,05,14,03,28.70
2015,07,05,14,04,28.70
2015,07,05,14,05,28.80
2015,07,05,14,06,28.80
2015,07,05,14,07,28.90
2015,07,05,14,08,28.90
2015,07,05,14,09,28.90
2015,07,05,14,10,28.90
2015,07,05,14,11,29.00
2015,07,05,14,12,29.00
2015,07,05,14,13,29.00
2015,07,05,14,14,29.00
2015,07,05,14,15,29.00
2015,07,05,14,16,29.10
2015,07,05,14,17,29.10
2015,07,05,14,18,29.10
2015,07,05,14,19,29.20
2015,07,05,14,20,29.20
2015,07,05,14,21,29.30
2015,07,05,14,22,29.30
2015,07,05,14,23,29.40
2015,07,05,14,24,29.50
2015,07,05,14,25,29.60
2015,07,05,14,26,29.60
2015,07,05,14,27,29.70
2015,07,05,14,28,29.80
2015,07,05,14,29,29.90
2015,07,05,14,30,30.00
2015,07,05,14,31,30.00
2015,07,05,14,32,30.10
2015,07,05,14,33,30.10
2015,07,05,14,34,30.10
2015,07,05,14,35,30.10
2015,07,05,14,36,30.10
2015,07,05,14,37,30.10
2015,07,05,14,38,30.10
2015,07,05,14,39,30.20
2015,07,05,14,40,30.20
2015,07,05,14,41,30.30
2015,07,05,14,42,30.30
2015,07,05,14,43,30.40
2015,07,05,14,44,30.40
2015,07,05,14,45,30.50
2015,07,05,14,46,30.60
2015,07,05,14,47,30.60
2015,07,05,14,48,30.70
2015,07,05,14,49,30.80
2015,07,05,14,50,30.90
2015,07,05,14,51,31.00
2015,07,05,14,52,31.00
2015,07,05,14,53,31.10
2015,07,05,14,54,31.20
2015,07,05,14,55,31.20
2015,07,05,14,56,31.10
2015,07,05,14,57,31.10
2015,07,05,14,58,31.10
2015,07,05,14,59,31.10
2015,07,05,15,00,31.10
2015,07,05,15,01,31.00
2015,07,05,15,02,30.90
2015,07,05,15,03,30.80
2015,07,05,15,04,30.70
2015,07,05,15,05,30.70
2015,07,05,15,06,30.70
2015,07,05,15,07,30.70
2015,07,05,15,08,30.60
2015,07,05,15,09,30.60
2015,07,05,15,10,30.60
2015,07,05,15,11,30.60
2015,07,05,15,12,30.70
2015,07,05,15,13,30.70
2015,07,05,15,14,30.80
2015,07,05,15,15,30.80
2015,07,05,15,16,30.90
2015,07,05,15,17,30.90
2015,07,05,15,18,31.00
2015,07,05,15,19,31.00
2015,07,05,15,20,31.00
2015,07,05,15,21,31.10
2015,07,05,15,22,31.10
2015,07,05,15,23,31.10
2015,07,05,15,24,31.10
2015,07,05,15,25,31.10
2015,07,05,15,26,31.20
2015,07,05,15,27,31.20
2015,07,05,15,28,31.30
2015,07,05,15,29,31.30
2015,07,05,15,30,31.40
2015,07,05,15,31,31.40
2015,07,05,15,32,31.30
2015,07,05,15,33,31.20
2015,07,05,15,34,31.20
2015,07,05,15,35,31.20
2015,07,05,15,36,31.20
2015,07,05,15,37,31.20
2015,07,05,15,38,31.20
2015,07,05,15,39,31.30
2015,07,05,15,40,31.40
2015,07,05,15,41,31.50
2015,07,05,15,42,31.50
2015,07,05,15,43,31.50
2015,07,05,15,44,31.60
2015,07,05,15,45,31.50
2015,07,05,15,46,31.50
2015,07,05,15,47,31.40
2015,07,05,15,48,31.40
2015,07,05,15,49,31.30
2015,07,05,15,50,31.20
2015,07,05,15,51,31.20
2015,07,05,15,52,31.20
2015,07,05,15,53,31.20
2015,07,05,15,54,31.20
2015,07,05,15,55,31.20
2015,07,05,15,56,31.20
2015,07,05,15,57,31.20
2015,07,05,15,58,31.30
2015,07,05,15,59,31.30
2015,07,05,16,00,31.20
2015,07,05,16,01,31.10
2015,07,05,16,02,31.00
2015,07,05,16,03,30.90
2015,07,05,16,04,30.90
2015,07,05,16,05,30.80
2015,07,05,16,06,30.80
2015,07,05,16,07,30.80
2015,07,05,16,08,30.80
2015,07,05,16,09,30.90
2015,07,05,16,10,30.90
2015,07,05,16,11,30.90
2015,07,05,16,12,31.00
2015,07,05,16,13,31.00
2015,07,05,16,14,31.00
2015,07,05,16,15,31.10
2015,07,05,16,16,31.10
2015,07,05,16,17,31.20
2015,07,05,16,18,31.20
2015,07,05,16,19,31.20
2015,07,05,16,20,31.20
2015,07,05,16,21,31.20
2015,07,05,16,22,31.30
2015,07,05,16,23,31.30
2015,07,05,16,24,31.30
2015,07,05,16,25,31.40
2015,07,05,16,26,31.40
2015,07,05,16,27,31.40
2015,07,05,16,28,31.40
2015,07,05,16,29,31.40
2015,07,05,16,30,31.50
2015,07,05,16,31,31.50
2015,07,05,16,32,31.50
2015,07,05,16,33,31.60
2015,07,05,16,34,31.60
2015,07,05,16,35,31.70
2015,07,05,16,36,31.70
2015,07,05,16,37,31.70
2015,07,05,16,38,31.70
2015,07,05,16,39,31.70
2015,07,05,16,40,31.70
2015,07,05,16,41,31.70
2015,07,05,16,42,31.70
2015,07,05,16,43,31.70
2015,07,05,16,44,31.70
2015,07,05,16,45,31.70
2015,07,05,16,46,31.80
2015,07,05,16,47,31.80
2015,07,05,16,48,31.80
2015,07,05,16,49,31.70
2015,07,05,16,50,31.70
2015,07,05,16,51,31.70
2015,07,05,16,52,31.70
2015,07,05,16,53,31.70
2015,07,05,16,54,31.70
2015,07,05,16,55,31.60
2015,07,05,16,56,31.60
2015,07,05,16,57,31.60
2015,07,05,16,58,31.60
2015,07,05,16,59,31.50
2015,07,05,17,00,31.50
2015,07,05,17,01,31.40
2015,07,05,17,02,31.40
2015,07,05,17,03,31.40
2015,07,05,17,04,31.30
2015,07,05,17,05,31.30
2015,07,05,17,06,31.30
2015,07,05,17,07,31.30
2015,07,05,17,08,31.30
2015,07,05,17,09,31.30
2015,07,05,17,10,31.20
2015,07,05,17,11,31.20
2015,07,05,17,12,31.20
2015,07,05,17,13,31.20
2015,07,05,17,14,31.20
2015,07,05,17,15,31.20
2015,07,05,17,16,31.20
2015,07,05,17,17,31.20
2015,07,05,17,18,31.20
2015,07,05,17,19,31.10